Килинги-Нымме

Эстония     58°09′03″N   24°57′54″E
В апреле 2022 года жителям России запретили посещать сайт meteo.paraplan.net по решению Генеральной прокуратуры. Аудитория сайта уменьшилась в 10 раз. Владельцы сайта не видят смысла в поддержке погодного сервера в таких условиях. Сайт будет закрыт в октябре.
темп.,
°C
ветер,
м/с
пор.,
м/с
влажн.,
%
обл.,
%
осадки,
мм/ч
давл.,
гПа
погр.,
м
3 октября, пн
пн300:00+6всв2787100 0.0 1008175
03:00+6св2788100 0.0 1008197
06:00+7ссв31182100 0.0 1008439
09:00+8ссв41282100 0.0 1008912
12:00+10с61466100 0.0 10071225
15:00+10с71568100 0.0 10061340
18:00+9с71674100 0.3 10051475
21:00+9с71674100 0.4 10031447
4 октября, вт
вт400:00+9с71776100 0.3 10031518
03:00+8с61488100 3.1 10021383
06:00+7ссз51292100 3.8 10021402
09:00+7с41093100 9.4 10031235
12:00+7ссз5992100 3.0 10041049
15:00+7ссз51092100 4.1 1006865
18:00+7ссз41091100 0.2 1008656
21:00+7ссз399198 0.2 1010505
5 октября, ср
ср500:00+5сз23952 0.0 101154
03:00+4зюз11934 0.0 101211
06:00+6ююз2297100 0.0 101134
09:00+8ююз3798100 1.1 1011274
12:00+10ююз41198100 0.8 1010624
15:00+13юз51293100 0.9 1009941
18:00+13зюз51194100 0.1 1009681
21:00+13зюз41197100 0.1 1010692
6 октября, чт
чт600:00+13юз5119394 0.1 1010636
03:00+11ююз5139137 0.1 1009548
06:00+11ююз514890 0.0 1007557
09:00+12юз61490100 0.0 1006747
12:00+14з6137916 0.8 10081312
15:00+14зюз815711 0.9 10101430
18:00+12зюз8157680 0.3 10121511
21:00+12зюз8157523 0.4 10131310
7 октября, пт
пт700:00+12зюз8167638 0.0 10141327
03:00+12зюз8157844 0.2 10141360
06:00+12з8147621 0.2 10151278
09:00+12з712768 0.2 10161111
12:00+14зюз711729 0.1 10171129
15:00+14зюз612695 0.1 10171236
18:00+13юз6137677 0.0 10161233
21:00+12юз6138162 0.1 10151042